STARLINK-1262, 45366

Orbit data source: Space-Track

STARLINK-1262, 45366 is a payload satellite owned by SpaceX/Seattle (US) in LEO that was launched on Wed, 18 Mar 2020 UTC via an FALCON 9 launch vehicle from the Air Force Eastern Test Range (AFETR). Payload-class satellites include a variety of spacecraft equipped with specific instruments for various scientific and technological missions. These include communications satellites like Starlink; space stations such as the ISS; scientific satellites like the Hubble; Earth observation satellites from companies like Planet Labs, Umbra, and HawkEye 360; GPS; miniature CubeSats for education and research; and military/defense satellites.

Loading next visibility...
Identifier
45366, 2020-019G
Orbit
LEO
Country
Flag of USUS
Related business
Manufacturer
SpaceX/Seattle
Mission
Operational Commercial Communications
Bus & Motor
STARLINK, Unknown motor
Mass
260 kg wet, ~248 kg dry
Launch date (UTC)
2020-03-18 (6 years ago)
Launch vehicle
FALCON 9
Launch site
Air Force Eastern Test Range (AFETR)
Object type
Payload
Rocket body
Debris
Shape & HBR
Box + 1 Pan, 10.1 m
Radar Cross Section
13.562 m², Large (>1 m²)

Expand to show TLE details & history
Last TLE update: 20 hours ago

TLE from 20 hours ago
0 STARLINK-1262
1 45366U 20019G   25287.86154613 -.00005134  00000-0 -32590-3 0  9991
2 45366  53.0530 101.2626 0001380  65.4903 294.6229 15.06410974307752
Epoch: 2025-10-14T20:40Z
TLE epoch observation values (Epoch: 2025-10-14T20:40:37.585Z)
Latitude
-0.00009°
Longitude
127.46203°
Altitude
547.659 km
Speed
7.59 km/s
True Right ascension
06h 45m 03s
True Declination
0° 00' 00"
Sunlit
Object was in daylight at epoch
Visualization orbit readout
Latitude
Unknown
Longitude
Unknown
Altitude
Unknown
Speed
Unknown
Apparent Right ascension
Unknown
Apparent Declination
Unknown
Sunlit
N/A
Visualization observer readout
Local Sidereal Time
11:17:24
Azimuth
Unknown
Elevation
Unknown
Doppler factor
Unknown
Orbital elements
Apogee altitude
548.405 km
Perigee altitude
546.493 km
Semi-major axis
6,925.586 km
Eccentricity
0.00014
Inclination
53.053°
RAAN
101.2626°
Arg. of periapsis
65.4903°
True anomaly
294.60852°
Mean anomaly
294.6229°
Eccentric anomaly
294.61571°
Mean motion
3.76581 °/min
Orbital period
95.6 mins
BSTAR
-0.0003259
Loading maneuver chart data...
Computing Atmospheric mass density...
Loading historical data...
Loading historical data...
Loading historical data...
Loading historical data...
Loading historical data...
Loading historical data...
Loading historical data...

Documentation

Showing up to 5 results
|